Wind_Speed
39 39 37 32 33 30 33 32 32 40 34 38 38 41 43 38 38 35 32 32 30 29 29 30 39 39 35 35 32 28 27 26 27 26 27 26 21 19 20 22 25 27 30 31
37 35 29 33 32 35 30 33 36 38 37 40 37 41 39 35 34 32 32 31 27 27 30 30 39 27 32 33 31 26 26 27 26 27 24 22 20 18 19 20 22 25 27 29
32 28 33 25 33 31 34 34 31 32 29 30 35 45 32 36 33 30 28 29 28 29 29 30 31 26 31 30 27 26 26 29 25 23 21 19 18 15 18 17 21 24 25 24
35 29 32 29 28 36 35 33 32 32 33 28 25 31 34 34 33 30 31 30 27 28 28 28 28 25 27 27 27 27 29 28 24 20 21 19 15 15 14 16 15 17 21 21
28 31 29 30 29 33 32 34 31 32 34 36 29 33 23 29 30 26 27 28 28 28 28 27 28 30 25 30 29 29 30 26 23 20 21 20 14 14 13 14 14 14 20 18
26 27 26 28 32 29 34 30 29 26 22 33 15 25 19 15 23 23 29 27 30 31 31 29 31 33 28 32 31 32 31 26 21 20 22 18 14 12 11 11 11 9 14 13
27 27 26 26 27 28 27 25 20 16 18 16 13 20 15 21 19 22 24 26 28 29 26 25 30 32 28 33 32 34 30 23 20 23 22 18 15 11 10 7 6 5 7 11
28 20 30 27 24 25 23 19 23 12 13 17 14 18 16 21 19 20 24 28 26 32 34 31 33 32 32 32 30 31 29 23 21 24 22 20 15 13 12 11 9 4 5 5
22 20 33 31 26 23 23 20 18 22 20 22 21 14 19 20 17 18 24 26 28 32 28 29 34 32 32 33 30 31 28 23 23 21 21 21 17 15 14 14 11 8 5 6
34 33 28 34 27 25 24 24 19 18 17 17 8 7 24 19 18 21 24 29 32 31 32 30 32 34 35 36 30 33 27 25 25 19 19 22 21 18 17 16 14 12 10 6
33 35 29 30 31 23 25 26 26 22 20 17 14 18 21 19 17 22 26 30 33 32 34 33 34 36 38 32 33 34 30 28 23 20 17 19 22 21 20 18 17 15 13 8
37 37 33 29 27 21 27 25 20 22 20 23 22 22 15 16 19 21 27 33 35 33 34 35 36 34 35 37 38 37 35 31 24 24 19 17 19 22 22 21 19 17 15 12
40 38 33 28 25 30 32 29 26 28 25 21 19 16 16 21 24 16 17 26 35 35 36 37 37 38 38 41 44 42 39 33 25 25 22 21 20 21 23 23 21 20 18 16
43 42 36 29 20 28 25 24 28 31 28 24 23 25 25 22 16 16 18 22 29 38 37 39 39 41 40 44 43 43 42 33 30 26 24 24 24 23 24 24 24 23 21 20
40 37 38 36 36 31 22 24 24 28 27 26 22 26 26 30 25 24 21 10 26 37 39 39 40 40 43 42 44 43 43 39 37 33 30 31 28 25 27 26 26 26 25 24
40 35 28 29 33 34 34 29 27 30 30 28 27 25 28 27 25 29 27 22 19 32 39 38 40 39 39 41 36 47 45 43 41 38 39 35 33 30 29 29 27 27 27 25
33 40 21 24 28 27 32 30 36 33 33 32 28 31 28 26 27 27 30 27 19 19 39 39 39 42 44 39 44 49 47 47 42 41 42 40 36 34 32 31 31 30 29 28
32 39 38 15 33 30 37 25 18 24 24 27 29 31 31 29 32 28 21 21 15 21 23 40 37 41 43 40 43 48 50 50 46 44 43 42 40 38 35 34 32 39 37 35
34 25 18 6 27 27 22 29 16 14 18 20 25 26 28 34 33 26 25 18 12 15 20 20 42 43 44 43 40 36 48 53 51 46 47 45 41 37 38 39 29 42 41 35
29 19 9 15 20 18 19 22 20 19 24 22 24 25 27 27 27 27 24 24 22 17 10 15 17 40 42 42 41 40 41 38 53 49 50 52 52 42 40 39 38 40 35 31
30 13 10 18 17 26 26 18 16 20 24 24 25 24 22 25 24 25 25 23 20 25 25 19 16 20 27 34 50 41 49 46 44 45 47 50 46 44 44 44 40 50 47 39
24 17 11 13 15 18 18 19 18 15 16 23 26 23 21 22 24 23 27 26 16 21 21 20 22 17 24 26 24 34 35 40 48 55 55 52 52 48 48 56 58 53 68 42
20 19 14 14 14 14 15 13 19 17 14 18 23 24 23 22 22 22 23 27 18 23 26 20 21 24 24 24 25 25 25 32 38 36 36 40 53 64 67 67 67 63 64 59
23 24 19 13 15 12 14 18 20 18 17 18 20 22 22 21 18 21 22 22 21 17 15 16 18 20 21 25 28 29 29 30 31 32 34 35 36 35 37 38 44 39 42 40
11 22 24 16 14 11 12 15 23 29 29 25 20 20 21 18 16 20 22 21 23 18 21 21 20 22 23 23 23 25 29 31 32 34 34 36 37 35 33 29 23 23 24 27
14 15 21 16 17 13 13 17 14 18 20 22 19 19 21 26 18 15 21 23 19 19 18 28 25 28 27 27 24 24 26 27 28 28 28 28 29 27 25 24 25 27 30 32
Wind_Direction
273 274 281 275 260 254 248 246 257 257 246 255 249 246 248 247 241 240 243 247 249 256 256 251 251 257 253 243 241 247 254 265 274 272 272 275 262 253 254 259 263 268 265 259
274 274 274 261 254 263 249 260 248 252 248 245 247 243 242 251 249 245 242 242 248 254 258 248 246 249 243 241 243 247 250 261 269 266 273 269 252 253 260 263 269 269 266 256
276 275 279 271 251 257 250 254 263 262 261 262 264 248 237 248 244 247 248 246 247 254 257 244 239 235 233 238 241 241 246 259 262 263 276 256 249 255 260 271 276 268 265 248
275 278 280 277 269 252 252 259 257 265 253 259 253 262 241 243 240 245 241 242 249 253 245 233 232 238 231 234 233 236 243 256 257 268 269 249 246 254 260 269 290 278 265 242
277 277 273 276 273 265 249 259 262 258 266 250 247 265 241 249 253 245 245 245 246 245 226 224 226 238 231 228 227 231 240 251 257 267 259 246 247 252 260 268 281 287 268 254
276 277 273 271 276 274 263 254 263 268 275 252 251 260 254 247 241 241 238 240 238 227 217 218 223 231 226 216 220 227 238 247 254 262 252 242 243 246 256 259 276 290 311 238
283 276 274 274 273 276 280 252 260 270 274 273 256 253 229 244 247 244 240 235 240 230 221 227 230 233 216 215 223 224 230 241 248 258 248 241 237 234 237 232 257 325 326 329
270 271 284 267 270 271 277 274 245 241 235 227 214 263 252 254 252 246 233 234 224 218 217 222 222 210 211 217 222 223 227 231 245 254 244 239 232 231 223 219 240 280 319 293
266 267 277 274 263 264 273 265 263 261 235 250 250 250 263 253 260 249 232 231 216 215 218 223 199 204 213 216 219 225 221 226 243 253 243 238 229 231 227 220 230 251 282 275
263 261 253 276 260 259 261 263 267 259 261 262 267 200 230 251 242 239 230 231 221 220 219 204 195 206 213 214 221 221 216 225 237 244 233 234 236 235 231 226 227 242 263 276
257 257 252 253 269 259 257 254 259 253 252 247 221 237 242 239 243 234 230 229 225 219 213 205 203 206 214 210 218 218 224 228 231 235 230 236 235 238 235 235 229 230 245 263
242 250 256 252 262 255 237 247 248 253 236 242 246 245 239 234 237 231 232 231 223 217 211 209 208 207 217 213 216 220 224 227 222 229 229 233 230 236 240 239 240 235 238 247
236 234 240 245 236 241 253 246 237 248 249 236 237 241 242 245 235 246 246 241 230 221 220 211 211 208 214 220 233 220 224 227 218 225 228 231 235 239 239 240 242 240 238 240
234 228 226 228 237 239 242 245 237 239 241 237 235 239 245 238 236 248 244 250 234 223 223 213 212 210 216 228 232 213 223 227 227 222 234 235 236 239 245 243 240 240 243 243
220 219 224 227 221 229 231 226 238 232 232 234 231 242 241 252 250 255 237 202 235 219 217 215 215 216 221 228 208 214 221 223 229 231 237 235 241 240 242 243 247 248 246 247
219 211 216 220 227 233 226 235 236 238 236 236 237 244 247 244 261 260 266 248 205 228 214 215 218 221 227 227 228 215 220 226 230 233 237 240 239 243 247 248 245 244 246 246
209 206 209 217 233 232 221 225 222 227 232 234 235 236 241 238 254 261 268 269 249 215 222 213 215 223 231 234 216 214 218 225 229 234 239 241 242 248 246 249 248 243 241 242
193 193 212 207 218 225 222 231 195 209 218 228 236 243 242 238 248 255 261 259 263 255 216 223 221 224 226 227 212 225 222 226 230 235 242 243 246 248 249 252 265 244 243 238
191 182 183 134 198 215 230 230 223 221 234 235 241 248 246 245 245 255 257 256 260 243 233 218 208 228 226 224 226 227 225 234 233 233 245 248 251 256 256 254 261 258 239 239
176 150 171 144 185 185 223 227 238 243 242 245 251 254 251 252 252 259 255 251 265 250 243 227 206 209 221 226 227 230 233 241 233 233 237 237 253 255 256 255 264 244 245 245
210 174 162 173 172 206 216 208 207 233 245 244 250 256 255 251 253 254 258 249 253 256 261 253 238 224 199 217 223 240 233 229 233 236 239 246 251 255 256 258 260 256 248 250
214 213 225 210 194 201 205 213 221 238 250 248 245 252 254 249 246 249 252 252 255 239 239 241 253 233 216 218 216 219 224 220 234 243 244 244 246 250 255 256 259 253 254 246
204 194 205 207 224 216 225 225 231 248 264 250 246 247 249 251 246 244 246 249 265 251 242 233 246 247 242 235 231 238 237 235 239 242 247 244 242 241 242 252 248 251 244 244
223 219 223 223 216 205 219 236 246 256 272 259 236 232 238 249 245 238 233 245 252 253 236 252 250 246 244 246 248 248 250 251 252 253 258 263 265 264 264 260 256 256 254 258
222 221 225 217 198 222 248 259 260 255 265 258 244 234 235 226 239 239 231 231 240 238 237 234 237 249 249 243 247 246 247 248 249 250 250 251 250 250 250 248 255 262 269 269
221 216 210 205 213 238 253 260 243 239 241 244 242 233 229 218 218 206 224 240 248 254 245 234 238 248 250 253 252 255 246 248 250 251 251 251 253 256 261 265 267 268 268 268
Height
5650 5649 5648 5646 5644 5646 5645 5645 5648 5651 5652 5652 5655 5657 5662 5666 5668 5672 5678 5681 5684 5686 5687 5688 5689 5689 5695 5699 5703 5707 5710 5711 5711 5712 5712 5713 5712 5714 5714 5715 5715 5715 5715 5715
5643 5642 5640 5638 5639 5639 5640 5640 5641 5642 5642 5642 5647 5647 5652 5657 5661 5664 5669 5672 5675 5676 5677 5679 5681 5684 5689 5693 5697 5701 5704 5705 5706 5707 5707 5708 5709 5709 5710 5710 5709 5709 5707 5706
5635 5636 5633 5633 5633 5633 5633 5633 5635 5634 5638 5639 5639 5640 5647 5648 5652 5657 5660 5663 5665 5667 5669 5671 5675 5677 5683 5687 5692 5695 5698 5700 5701 5702 5702 5704 5706 5706 5706 5705 5704 5702 5701 5700
5628 5631 5627 5627 5627 5627 5627 5629 5628 5630 5630 5632 5633 5629 5637 5641 5645 5649 5651 5654 5657 5659 5662 5666 5668 5672 5678 5681 5685 5689 5693 5695 5697 5696 5699 5701 5702 5703 5702 5701 5700 5697 5696 5696
5623 5622 5622 5622 5622 5620 5622 5619 5623 5623 5623 5623 5627 5627 5633 5636 5639 5640 5642 5646 5649 5652 5656 5660 5663 5666 5671 5674 5679 5684 5687 5690 5692 5692 5696 5698 5698 5700 5699 5698 5697 5694 5691 5690
5616 5614 5615 5616 5615 5615 5615 5615 5616 5616 5617 5615 5624 5623 5628 5634 5629 5633 5634 5638 5641 5645 5649 5652 5656 5660 5663 5667 5673 5678 5682 5685 5687 5689 5692 5694 5695 5697 5696 5695 5694 5692 5687 5686
5608 5608 5608 5609 5609 5610 5609 5609 5611 5614 5612 5615 5618 5618 5624 5624 5623 5624 5627 5630 5632 5636 5641 5645 5649 5653 5657 5662 5669 5672 5676 5681 5683 5685 5687 5691 5692 5693 5694 5693 5692 5690 5687 5684
5604 5607 5601 5603 5604 5605 5605 5605 5606 5609 5611 5612 5611 5615 5617 5617 5618 5619 5620 5621 5623 5628 5631 5636 5642 5646 5651 5657 5663 5667 5671 5676 5678 5681 5684 5687 5688 5690 5691 5690 5690 5689 5686 5685
5597 5600 5593 5595 5599 5601 5601 5600 5603 5602 5605 5606 5609 5612 5612 5610 5611 5613 5613 5614 5618 5623 5628 5633 5633 5641 5647 5652 5658 5662 5667 5672 5674 5677 5680 5683 5684 5686 5688 5688 5688 5688 5686 5684
5589 5587 5591 5588 5591 5595 5596 5598 5599 5598 5599 5601 5605 5607 5604 5606 5605 5606 5606 5609 5613 5617 5622 5626 5629 5636 5642 5648 5653 5657 5662 5667 5670 5673 5676 5677 5680 5682 5683 5684 5684 5685 5684 5683
5577 5577 5582 5584 5582 5587 5590 5592 5593 5594 5595 5596 5598 5599 5599 5600 5600 5601 5603 5603 5607 5612 5616 5619 5623 5629 5637 5644 5648 5652 5657 5662 5666 5668 5671 5673 5676 5678 5679 5680 5680 5681 5682 5681
5564 5568 5571 5576 5579 5582 5584 5585 5588 5588 5592 5591 5592 5592 5594 5595 5596 5596 5597 5598 5601 5606 5610 5614 5620 5625 5633 5638 5642 5647 5651 5656 5661 5664 5667 5669 5671 5673 5675 5676 5677 5677 5678 5679
5552 5559 5563 5567 5573 5574 5575 5580 5583 5583 5584 5586 5587 5590 5589 5590 5590 5591 5592 5594 5597 5600 5604 5609 5616 5620 5627 5633 5637 5640 5645 5649 5655 5659 5662 5664 5666 5668 5670 5672 5672 5674 5675 5676
5536 5546 5553 5559 5565 5566 5568 5570 5573 5577 5579 5580 5582 5583 5583 5582 5585 5587 5588 5587 5590 5594 5598 5603 5610 5615 5621 5626 5628 5633 5640 5645 5649 5654 5658 5659 5661 5663 5666 5667 5669 5670 5671 5672
5528 5536 5542 5548 5552 5556 5561 5563 5567 5569 5571 5574 5577 5577 5578 5577 5580 5581 5583 5583 5584 5587 5591 5598 5604 5609 5614 5619 5622 5627 5633 5638 5642 5648 5651 5653 5656 5658 5660 5662 5663 5664 5666 5667
5519 5530 5535 5539 5545 5549 5554 5555 5559 5562 5565 5567 5570 5574 5573 5574 5577 5578 5578 5579 5581 5582 5586 5591 5598 5603 5607 5611 5616 5620 5626 5631 5635 5640 5642 5646 5650 5653 5654 5656 5657 5658 5660 5661
5512 5521 5528 5535 5540 5543 5547 5551 5553 5556 5559 5562 5565 5566 5568 5571 5572 5575 5575 5576 5575 5577 5581 5584 5591 5596 5600 5604 5609 5613 5618 5623 5627 5631 5633 5637 5642 5645 5648 5649 5650 5652 5654 5655
5508 5517 5522 5528 5533 5537 5541 5544 5546 5550 5552 5556 5558 5560 5563 5566 5567 5570 5571 5573 5571 5572 5575 5579 5583 5588 5593 5597 5602 5607 5611 5615 5619 5622 5625 5629 5633 5637 5639 5641 5642 5643 5645 5647
5505 5515 5520 5517 5526 5532 5535 5539 5542 5546 5551 5551 5554 5556 5558 5561 5563 5566 5567 5567 5567 5567 5569 5569 5575 5580 5586 5590 5594 5598 5604 5608 5611 5615 5618 5621 5624 5626 5628 5631 5633 5635 5635 5638
5504 5509 5515 5518 5523 5527 5533 5535 5538 5541 5543 5547 5549 5552 5553 5556 5559 5561 5562 5563 5563 5563 5564 5566 5566 5572 5576 5583 5586 5591 5595 5598 5602 5606 5611 5609 5615 5619 5620 5622 5624 5625 5626 5628
5504 5509 5513 5516 5519 5524 5528 5531 5534 5538 5542 5543 5545 5548 5549 5551 5553 5554 5557 5558 5558 5558 5559 5561 5562 5561 5561 5574 5570 5577 5583 5589 5592 5596 5601 5603 5605 5607 5609 5611 5613 5614 5615 5618
5507 5510 5513 5516 5519 5523 5526 5529 5532 5534 5535 5538 5541 5543 5545 5546 5548 5549 5551 5553 5552 5553 5553 5554 5555 5557 5560 5564 5567 5571 5568 5575 5581 5585 5586 5589 5591 5593 5595 5598 5599 5601 5600 5601
5506 5510 5514 5516 5517 5519 5523 5526 5528 5530 5532 5534 5536 5538 5540 5541 5542 5544 5546 5548 5548 5547 5548 5550 5552 5554 5556 5558 5560 5563 5565 5568 5570 5573 5574 5573 5577 5580 5581 5584 5584 5586 5588 5587
5504 5506 5509 5512 5514 5517 5519 5521 5523 5526 5528 5529 5531 5532 5535 5536 5537 5539 5541 5542 5544 5543 5543 5545 5548 5550 5553 5554 5556 5558 5560 5562 5564 5565 5566 5567 5568 5569 5571 5573 5574 5574 5576 5578
5498 5502 5506 5510 5512 5514 5515 5517 5519 5521 5522 5524 5525 5527 5529 5532 5534 5535 5536 5538 5539 5540 5541 5543 5545 5547 5549 5550 5552 5552 5554 5555 5556 5558 5559 5560 5561 5562 5563 5563 5564 5566 5568 5569
5499 5501 5505 5509 5510 5512 5513 5513 5514 5516 5517 5519 5521 5522 5524 5528 5529 5530 5531 5533 5534 5536 5538 5539 5541 5541 5542 5544 5545 5547 5548 5549 5550 5550 5551 5552 5553 5554 5554 5556 5557 5559 5560 5560